K8ZAS Weather Reports


time (UTC)temp
C
wind
direction
speed
KPH
gust
KPH
rain 1hr
cm
rain 24hr
cm
rain mn
cm
humidity
%
barometer
mb
20260504150518 12 37 3.2 11.3 0.00 0.00 0.00 43 1009.7
20260504140523 6 121 0.0 3.2 0.00 0.00 0.00 60 1010.0
20260504130544 3 215 1.6 4.8 0.00 0.00 0.00 69 1009.2
20260504110526 2 206 0.0 3.2 0.00 0.00 0.00 72 1008.7
20260504100527 4 322 1.6 3.2 0.00 0.00 0.00 65 1008.8
20260504081517 5 211 0.0 3.2 0.00 0.00 0.00 63 1009.1
20260504080537 5 0.0 0.0 0.00 0.00 0.00 64 1009.1
20260504050518 11 275 0.0 1.6 0.00 0.00 0.00 43 1009.3
20260504045538 11 0.0 0.0 0.00 0.00 0.00 45 1009.4
20260504044518 11 0.0 0.0 0.00 0.00 0.00 47 1009.5
20260504043518 11 318 0.0 1.6 0.00 0.00 0.00 48 1009.5
20260504042516 12 220 0.0 4.8 0.00 0.00 0.00 41 1009.4
20260504041517 12 107 0.0 3.2 0.00 0.00 0.00 40 1009.3
20260504040519 13 0.0 0.0 0.00 0.00 0.00 39 1009.2
20260504035519 14 0.0 0.0 0.00 0.00 0.00 38 1009.1
20260504034520 14 0.0 0.0 0.00 0.00 0.00 36 1009.0
20260504033517 15 349 3.2 6.4 0.00 0.00 0.00 34 1009.0
20260504032518 15 7 1.6 4.8 0.00 0.00 0.00 34 1008.8
20260504031517 16 349 4.8 8.0 0.00 0.00 0.00 32 1008.6
20260504030517 16 21 1.6 4.8 0.00 0.00 0.00 31 1008.5
20260504025519 17 22 3.2 8.0 0.00 0.00 0.00 31 1008.4
20260504024519 17 2 0.0 6.4 0.00 0.00 0.00 29 1008.3
20260504023538 17 34 3.2 9.7 0.00 0.00 0.00 28 1008.1
20260504022518 18 23 3.2 9.7 0.00 0.00 0.00 28 1008.0
20260504021518 18 357 3.2 14.5 0.00 0.00 0.00 27 1007.9
20260504020518 20 25 3.2 14.5 0.00 0.00 0.00 24 1007.7
20260504015518 20 24 3.2 11.3 0.00 0.00 0.00 23 1007.6
20260504014519 21 33 3.2 4.8 0.00 0.00 0.00 22 1007.5
20260504013539 21 25 3.2 9.7 0.00 0.00 0.00 21 1007.4
20260504012519 21 11 3.2 9.7 0.00 0.00 0.00 18 1007.3
20260504011519 21 19 3.2 8.0 0.00 0.00 0.00 18 1007.4
20260504010520 21 28 4.8 11.3 0.00 0.00 0.00 18 1007.4
20260504005517 22 48 3.2 9.7 0.00 0.00 0.00 18 1007.4
20260504004517 22 45 4.8 14.5 0.00 0.00 0.00 18 1007.4
20260504003520 22 31 3.2 9.7 0.00 0.00 0.00 18 1007.5
20260504002520 22 22 4.8 9.7 0.00 0.00 0.00 18 1007.5
20260504001518 22 5 4.8 17.7 0.00 0.00 0.00 17 1007.6
20260504000538 23 9 4.8 14.5 0.00 0.00 0.00 18 1007.7
20260503235518 23 44 6.4 14.5 0.00 0.00 0.00 18 1007.6
20260503234518 23 351 3.2 9.7 0.00 0.00 0.00 15 1007.4
20260503233518 23 345 4.8 12.9 0.00 0.00 0.00 15 1007.5
20260503232519 23 321 4.8 11.3 0.00 0.00 0.00 16 1007.7
20260503231518 23 91 1.6 9.7 0.00 0.00 0.00 17 1007.8
20260503230519 23 42 3.2 12.9 0.00 0.00 0.00 17 1007.9
20260503225519 23 43 4.8 12.9 0.00 0.00 0.00 17 1008.0
20260503224519 23 82 3.2 9.7 0.00 0.00 0.00 18 1008.1
20260503223519 22 34 4.8 14.5 0.00 0.00 0.00 18 1008.2
20260503222519 22 43 1.6 9.7 0.00 0.00 0.00 18 1008.3
20260503221600 21 55 3.2 12.9 0.00 0.00 0.00 18 1008.5
20260503220520 21 52 4.8 14.5 0.00 0.00 0.00 18 1008.8
20260503215537 22 29 4.8 12.9 0.00 0.00 0.00 18 1009.0
20260503214517 22 19 3.2 8.0 0.00 0.00 0.00 18 1009.1
20260503213517 22 42 6.4 11.3 0.00 0.00 0.00 18 1009.2
20260503212521 22 44 6.4 14.5 0.00 0.00 0.00 18 1009.2
20260503211518 22 332 3.2 9.7 0.00 0.00 0.00 18 1009.4
20260503210518 22 241 1.6 11.3 0.00 0.00 0.00 18 1009.6
20260503205518 23 73 3.2 11.3 0.00 0.00 0.00 17 1009.7
20260503204518 22 48 1.6 8.0 0.00 0.00 0.00 18 1009.9
20260503203518 23 26 6.4 14.5 0.00 0.00 0.00 18 1010.1
20260503202519 23 353 3.2 12.9 0.00 0.00 0.00 18 1010.3
20260503201519 23 283 4.8 11.3 0.00 0.00 0.00 18 1010.4
20260503200559 23 19 3.2 8.0 0.00 0.00 0.00 18 1010.6
20260503195519 22 303 3.2 9.7 0.00 0.00 0.00 19 1010.8
20260503194519 22 36 4.8 14.5 0.00 0.00 0.00 19 1011.0
20260503193520 22 64 3.2 11.3 0.00 0.00 0.00 20 1011.2
20260503192517 21 330 4.8 12.9 0.00 0.00 0.00 20 1011.4
20260503191517 21 19 3.2 14.5 0.00 0.00 0.00 21 1011.6
20260503190540 21 1 1.6 8.0 0.00 0.00 0.00 21 1011.8
20260503185520 21 20 6.4 14.5 0.00 0.00 0.00 22 1012.1
20260503184517 21 10 3.2 12.9 0.00 0.00 0.00 23 1012.2
20260503183518 20 45 3.2 11.3 0.00 0.00 0.00 24 1012.4
20260503182518 20 341 3.2 11.3 0.00 0.00 0.00 24 1012.6
20260503181518 20 27 3.2 11.3 0.00 0.00 0.00 26 1012.9
20260503180518 20 13 3.2 9.7 0.00 0.00 0.00 26 1013.0
20260503175518 19 42 4.8 11.3 0.00 0.00 0.00 27 1013.2
20260503174519 19 38 6.4 14.5 0.00 0.00 0.00 27 1013.4
20260503173519 18 6 3.2 9.7 0.00 0.00 0.00 27 1013.6
20260503172539 17 28 3.2 9.7 0.00 0.00 0.00 30 1013.8
20260503171519 17 34 3.2 11.3 0.00 0.00 0.00 31 1013.9
20260503170519 18 335 3.2 11.3 0.00 0.00 0.00 32 1014.1